Weather History for KVJI - March, 2013

Change the Weather History Date:

Sunday, March 24, 2013

  Actual Average (KTRI) Record (KTRI)
Temperature  
Mean Temperature 43 °F 49 °F  
Max Temperature 46 °F 62 °F 80 °F (1949)
Min Temperature 40 °F 36 °F 21 °F (1940)
Degree Days  
Heating Degree Days 22 16  
Month to date heating degree days 462  
Since 1 July heating degree days 3844  
Cooling Degree Days 0 0  
Month to date cooling degree days 0  
Year to date cooling degree days 0  
Moisture  
Dew Point 41 °F    
Average Humidity 89    
Maximum Humidity 100    
Minimum Humidity 68    
Precipitation  
Precipitation 0.78 in 0.11 in 0.78 in (2013)
Month to date precipitation 2.64  
Year to date precipitation 9.46  
Snow  
Snow 0.00 in 0.10 in - ()
Month to date snowfall 1.2  
Since 1 July snowfall 12.0  
Snow Depth -    
Sea Level Pressure  
Sea Level Pressure 29.61 in    
Wind  
Wind Speed 11 mph (East)    
Max Wind Speed 20 mph    
Max Gust Speed 24 mph    
Visibility 9 miles    
Events Rain , Thunderstorm    
T = Trace of Precipitation, MM = Missing Value Source: NWS Daily Summary

Daily Weather History Graph

Daily Weather History Graph

Search for Another Location

Airport or City:

Trip Planner

Search our weather history database for the weather conditions in past years. The results will help you decide how hot, cold, wet, or windy it might be!

Date:

Astronomy

Mar. 24, 2013 Rise Set
Actual Time 7:25 AM EDT 7:43 PM EDT
Civil Twilight 6:59 AM EDT 8:09 PM EDT
Nautical Twilight 6:29 AM EDT 8:39 PM EDT
Astronomical Twilight 5:58 AM EDT 9:10 PM EDT
Moon 5:13 PM EDT (3/24) 5:31 AM EDT (3/24)
Length of Visible Light 13h 09m
Length of Day
12h 18m
Waxing Gibbous, 91% of the Moon is Illuminated
Mar 24
Waxing Gibbous
Mar 27
Full
Apr 3
Last Quarter
Apr 10
New
Apr 18
First Quarter

Hourly Weather History & Observations

Time (EDT) Temp. Windchill Dew Point Humidity Pressure Visibility Wind Dir Wind Speed Gust Speed Precip Events Conditions
12:15 AM 42.8 °F 37.5 °F 36.7 °F 79% 29.83 in 10.0 mi East 9.2 mph - N/A   Clear
12:35 AM 42.3 °F 36.8 °F 36.9 °F 81% 29.82 in 10.0 mi East 9.2 mph - N/A   Clear
12:55 AM 43.2 °F 37.0 °F 36.7 °F 78% 29.80 in 10.0 mi East 11.5 mph - N/A   Clear
1:15 AM 44.1 °F 38.1 °F 36.1 °F 74% 29.79 in 10.0 mi East 11.5 mph - N/A   Scattered Clouds
1:35 AM 44.6 °F 39.7 °F 36.1 °F 72% 29.81 in 10.0 mi East 9.2 mph - N/A   Mostly Cloudy
1:55 AM 44.6 °F 39.2 °F 35.8 °F 71% 29.81 in 10.0 mi East 10.4 mph - N/A   Mostly Cloudy
2:15 AM 44.6 °F 43.1 °F 36.0 °F 72% 29.83 in 10.0 mi ENE 3.5 mph - N/A   Overcast
2:35 AM 44.1 °F 42.5 °F 35.8 °F 73% 29.85 in 10.0 mi East 3.5 mph - N/A   Overcast
2:55 AM 44.6 °F 40.2 °F 35.8 °F 71% 29.83 in 10.0 mi East 8.1 mph - N/A   Overcast
3:15 AM 45.3 °F 40.1 °F 35.6 °F 69% 29.82 in 10.0 mi East 10.4 mph - N/A   Overcast
3:35 AM 45.5 °F 40.8 °F 35.6 °F 68% 29.80 in 10.0 mi East 9.2 mph - N/A   Overcast
3:55 AM 45.3 °F 39.7 °F 36.5 °F 71% 29.78 in 10.0 mi East 11.5 mph - N/A   Drizzle
4:15 AM 44.8 °F 39.4 °F 37.4 °F 75% 29.76 in 10.0 mi East 10.4 mph - N/A   Light Drizzle
4:35 AM 45.1 °F 40.8 °F 37.8 °F 75% 29.75 in 10.0 mi East 8.1 mph - N/A Rain Rain
4:55 AM 44.6 °F 39.2 °F 37.9 °F 77% 29.73 in 10.0 mi East 10.4 mph - N/A   Drizzle
5:15 AM 44.2 °F 38.4 °F 38.1 °F 79% 29.73 in 10.0 mi East 11.5 mph - N/A   Light Drizzle
5:35 AM 43.7 °F 39.1 °F 39.2 °F 84% 29.73 in 10.0 mi East 8.1 mph - N/A   Drizzle
5:55 AM 44.1 °F 39.5 °F 40.3 °F 87% 29.73 in 10.0 mi East 8.1 mph - 0.01 in Rain Rain
6:15 AM 44.2 °F 39.2 °F 41.4 °F 90% 29.73 in 10.0 mi East 9.2 mph - 0.02 in Rain Light Rain
6:35 AM 43.9 °F 37.2 °F 42.1 °F 93% 29.72 in 7.0 mi East 13.8 mph - 0.05 in Rain Rain
6:55 AM 43.3 °F 36.5 °F 42.1 °F 95% 29.70 in 10.0 mi East 13.8 mph - 0.07 in Rain Rain
7:15 AM 43.3 °F 37.7 °F 42.1 °F 95% 29.70 in 10.0 mi East 10.4 mph - 0.02 in Rain Light Rain
7:35 AM 43.0 °F 36.8 °F 41.9 °F 96% 29.70 in 7.0 mi East 11.5 mph - 0.05 in Rain Rain
7:55 AM 42.8 °F 36.6 °F 41.9 °F 97% 29.71 in 7.0 mi East 11.5 mph - 0.10 in Rain Rain
8:15 AM 42.8 °F 36.2 °F 42.3 °F 98% 29.70 in 5.0 mi East 12.7 mph - 0.05 in Rain Rain
8:35 AM 42.8 °F 36.2 °F 42.4 °F 99% 29.70 in 5.0 mi East 12.7 mph 17.3 mph 0.09 in Rain Rain
8:55 AM 42.4 °F 34.7 °F 42.4 °F 100% 29.69 in 5.0 mi East 16.1 mph 20.7 mph 0.13 in Rain Rain
9:15 AM 42.3 °F 34.4 °F 42.1 °F 99% 29.68 in 5.0 mi East 16.1 mph - 0.03 in Rain Light Rain
9:35 AM 41.9 °F 35.9 °F 41.9 °F 100% 29.69 in 5.0 mi East 10.4 mph - 0.05 in Rain Rain
9:55 AM 41.9 °F 34.6 °F 41.5 °F 99% 29.67 in 7.0 mi East 13.8 mph 17.3 mph 0.09 in Rain Rain
10:15 AM 42.1 °F 34.5 °F 41.7 °F 99% 29.66 in 10.0 mi East 15.0 mph - 0.02 in Rain Light Rain
10:35 AM 42.6 °F 34.6 °F 42.3 °F 99% 29.63 in 10.0 mi East 17.3 mph 21.9 mph 0.03 in Rain Light Rain
10:55 AM 43.0 °F 35.7 °F 42.4 °F 98% 29.64 in 10.0 mi East 15.0 mph - 0.03 in   Overcast
11:15 AM 43.3 °F 36.8 °F 42.4 °F 97% 29.63 in 10.0 mi East 12.7 mph - N/A Rain Light Rain
11:35 AM 43.7 °F 36.6 °F 42.3 °F 95% 29.62 in 10.0 mi East 15.0 mph - N/A   Overcast
11:55 AM 43.2 °F 35.9 °F 42.1 °F 96% 29.61 in 10.0 mi East 15.0 mph - 0.01 in Rain Light Rain
12:15 PM 44.1 °F 37.1 °F 42.8 °F 95% 29.61 in 10.0 mi ESE 15.0 mph - 0.01 in Rain Light Rain
12:35 PM 43.9 °F 37.2 °F 41.7 °F 92% 29.60 in 7.0 mi ESE 13.8 mph 21.9 mph 0.01 in Rain Light Rain
12:55 PM 44.4 °F 37.5 °F 42.6 °F 93% 29.59 in 10.0 mi East 15.0 mph - 0.01 in Rain Light Rain
1:15 PM 43.5 °F 36.1 °F 41.5 °F 93% 29.59 in 10.0 mi East 16.1 mph - 0.01 in Rain Light Rain
1:35 PM 42.4 °F 35.3 °F 41.2 °F 95% 29.59 in 4.0 mi East 13.8 mph - 0.06 in Rain Rain
1:55 PM 41.9 °F 35.0 °F 41.2 °F 97% 29.59 in 5.0 mi East 12.7 mph - 0.11 in Rain Rain
2:15 PM 42.8 °F 36.2 °F 42.6 °F 99% 29.58 in 10.0 mi East 12.7 mph - 0.01 in Rain Light Rain
2:35 PM 44.1 °F 36.8 °F 43.9 °F 99% 29.56 in 10.0 mi East 16.1 mph - 0.01 in   Overcast
2:55 PM 44.2 °F 36.7 °F 43.3 °F 97% 29.53 in 10.0 mi East 17.3 mph - 0.01 in   Overcast
3:15 PM 45.5 °F 38.9 °F 43.7 °F 93% 29.52 in 10.0 mi East 15.0 mph - N/A   Overcast
3:35 PM 45.7 °F 38.8 °F 43.0 °F 90% 29.51 in 10.0 mi East 16.1 mph - N/A   Overcast
3:55 PM 45.5 °F 38.6 °F 42.6 °F 90% 29.50 in 10.0 mi East 16.1 mph - N/A   Overcast
4:15 PM 46.4 °F 39.0 °F 43.2 °F 88% 29.48 in 10.0 mi East 19.6 mph - N/A   Overcast
4:35 PM 46.6 °F - 42.8 °F 87% 29.47 in 10.0 mi East 17.3 mph - N/A   Overcast
4:55 PM 46.8 °F - 42.6 °F 85% 29.45 in 10.0 mi East 17.3 mph 24.2 mph N/A   Overcast
5:15 PM 46.8 °F - 42.3 °F 84% 29.45 in 10.0 mi East 16.1 mph - N/A   Overcast
5:35 PM 46.8 °F - 42.4 °F 85% 29.42 in 10.0 mi East 17.3 mph - N/A   Overcast
5:55 PM 46.4 °F 39.2 °F 41.9 °F 84% 29.42 in 10.0 mi East 18.4 mph - N/A   Overcast
6:15 PM 46.4 °F 39.5 °F 41.9 °F 84% 29.42 in 10.0 mi East 17.3 mph - N/A   Overcast
6:35 PM 45.7 °F 38.8 °F 41.4 °F 85% 29.43 in 10.0 mi East 16.1 mph 20.7 mph N/A Thunderstorm Overcast
6:55 PM 45.5 °F 39.9 °F 41.7 °F 87% 29.44 in 10.0 mi East 11.5 mph - N/A   Overcast
7:15 PM 45.5 °F 38.6 °F 41.5 °F 86% 29.44 in 10.0 mi East 16.1 mph - N/A   Overcast
7:35 PM 45.1 °F 39.5 °F 41.5 °F 87% 29.45 in 10.0 mi East 11.5 mph - N/A   Overcast
7:55 PM 45.5 °F 39.2 °F 41.2 °F 85% 29.43 in 10.0 mi ESE 13.8 mph - N/A   Overcast
8:15 PM 45.1 °F 39.1 °F 41.0 °F 85% 29.42 in 10.0 mi ESE 12.7 mph - N/A   Overcast
8:35 PM 44.8 °F 38.7 °F 40.5 °F 85% 29.42 in 10.0 mi ESE 12.7 mph - N/A   Overcast
8:55 PM 43.2 °F 36.6 °F 40.5 °F 90% 29.42 in 7.0 mi ESE 12.7 mph - 0.02 in Rain Rain
9:15 PM 42.4 °F 36.5 °F 40.5 °F 93% 29.43 in 10.0 mi East 10.4 mph - 0.01 in Rain Light Rain
9:35 PM 42.3 °F 36.3 °F 41.0 °F 95% 29.44 in 7.0 mi East 10.4 mph - 0.03 in Rain Light Rain
9:55 PM 41.9 °F 37.5 °F 41.0 °F 97% 29.45 in 10.0 mi ENE 6.9 mph - 0.05 in Rain Rain
10:15 PM 41.5 °F 37.8 °F 41.0 °F 98% 29.48 in 5.0 mi NE 5.8 mph - 0.03 in Rain Rain
10:35 PM 41.0 °F 36.4 °F 40.6 °F 99% 29.52 in 4.0 mi North 6.9 mph 10.4 mph 0.09 in Rain Rain
10:55 PM 40.6 °F - 40.5 °F 99% 29.51 in 5.0 mi Calm Calm - 0.12 in Rain Rain
11:15 PM 40.6 °F 37.5 °F 40.6 °F 100% 29.50 in 10.0 mi SE 4.6 mph - 0.01 in Rain Light Rain
11:35 PM 40.3 °F 36.3 °F 40.3 °F 100% 29.49 in 7.0 mi ESE 5.8 mph - 0.02 in   Drizzle
11:55 PM 40.1 °F 34.1 °F 40.1 °F 100% 29.48 in 10.0 mi East 9.2 mph - 0.02 in   Overcast